User: anonymous   Login
Location: Standeford and Andreas Observatories
(44.1397°N, 93.9969°W)
Time: 02:39:53
(UTC-05:00)
Language:

Cosmos 1500 Rocket - Orbit

View from above orbital plane
View from above orbital plane
View from above satellite
View from above satellite

Ground track
Ground track

The orbit data is extracted from the following two-line orbital elements,

1 14373U 83099B   16149.33036541  .00000110  00000-0  10323-4 0  9998
2 14373  82.5423 244.1810 0021543  59.1727 359.1194 14.83610750763812
Epoch (UTC): 28 May 2016 07:55:43
Eccentricity: 0.0021543
inclination: 82.5423°
perigee height: 603 km
apogee height: 633 km
right ascension of ascending node: 244.1810°
argument of perigee: 59.1727°
revolutions per day: 14.83610750
mean anomaly at epoch: 359.1194°
orbit number at epoch: 76381

The dashed part of the orbit path shows where the satellite is in the earth's shadow,  

DLR